Regional Weather Roundup
Issued by NWS Cleveland, OH

Home | Current Version | Previous Version | Graphics & Text | Print | Product List | Glossary On
Versions: 1 2 3 4 5 6 7 8 9 10 11 12 13 14 15 16 17 18 19 20 21 22 23 24 25 26 27 28 29 30 31 32 33 34 35 36 37 38 39 40 41 42 43 44 45 46 47 48 49 50
376
ASUS41 KCLE 221910
RWRCLE
OHIO REGIONAL WEATHER ROUNDUP
NATIONAL WEATHER SERVICE CLEVELAND, OH
200 PM EST WED FEB 22 2017

NOTE: "FAIR" INDICATES FEW OR NO CLOUDS BELOW 12,000 FEET WITH NO
SIGNIFICANT WEATHER AND/OR OBSTRUCTIONS TO VISIBILITY.

OHZ001>008-015>018-024>027-034-035-043-044-222000-
   NORTHWEST OHIO

CITY           SKY/WX    TMP DP  RH WIND       PRES   REMARKS
DEFIANCE       CLOUDY    62  53  72 S12       29.79F
FINDLAY        CLOUDY    61  53  75 S13       29.81F
TOLEDO EXPRESS CLOUDY    62  54  74 S12       29.79F
TOLEDO EXEC    CLOUDY    63  55  75 SW12      29.81F
LIMA           CLOUDY    59  56  89 SW10      29.82F
$$

OHZ009>014-019>023-028>033-038-089-222000-
   NORTHEAST OHIO

CITY           SKY/WX    TMP DP  RH WIND       PRES   REMARKS
CLE-HOPKINS    CLOUDY    63  53  70 S15G22    29.84F
CLE-LAKEFRONT  CLOUDY    63  54  72 S13       29.81F
CUY CO. ARPT   CLOUDY    63  55  77 S14       29.83F
LORAIN-ELYRIA  CLOUDY    61  53  75 SW17      29.82F
ASHTABULA      CLOUDY    58  56  93 S9        29.85F
AKRON-CANTON   CLOUDY    57  54  89 SW8       29.87F FOG
WOOSTER        CLOUDY    56  53  90 S9        29.86F
MANSFIELD      CLOUDY    57  55  93 S14       29.85F
YOUNGSTOWN     LGT RAIN  56  54  93 SW8       29.87F VSB 1
$$

OHZ042-051>053-060>062-070>072-077>081-222000-
  SOUTHWEST OHIO

CITY           SKY/WX    TMP DP  RH WIND       PRES   REMARKS
CINC-COVINGTON CLOUDY    63  58  83 SW6       29.85F
CINC-LUNKEN    CLOUDY    63  58  83 VRB6      29.85F
HAMILTON       CLOUDY    65  59  81 SW7       29.85F
DAYTON         CLOUDY    58  56  93 S13       29.84F FOG
WRIGHT-PAT AFB CLOUDY    59  59 100 S12       29.84F
DAYTON GENERAL CLOUDY    59  56  89 SW7       29.84F FOG
WILMINGTON     CLOUDY    58  56  93 S6        29.85F FOG
$$

OHZ036-037-039>041-045>050-054>059-063>069-073>076-082>088-222000-
  CENTRAL AND SOUTHEAST OHIO

CITY           SKY/WX    TMP DP  RH WIND       PRES   REMARKS
COLUMBUS       CLOUDY    59  55  87 S12       29.86F
OSU AIRPORT    CLOUDY    58  56  93 S14       29.85F
BOLTON FIELD   CLOUDY    57  55  94 S12       29.87F
RICKENBACK AFB CLOUDY    58  56  92 S12       29.86F
NEWARK         CLOUDY    59  54  83 S9        29.86F
MARION         CLOUDY    59  54  83 S14       29.84F
LANCASTER      CLOUDY    60  54  80 S10       29.88F
ZANESVILLE     CLOUDY    59  53  80 S9        29.87F
NEW PHILLY     NOT AVBL
$$




USA.gov is the U.S. government's official web portal to all federal, state and local government web resources and services.